﻿#観測日時,平均風速,平均風向,最大風速,最大風速発生風向,最大瞬間風速,最大瞬間風速発生風向
#(年月日),(m/s)   ,(16方位),(m/s)   ,(16方位)        ,(m/s)       ,(16方位)            
2020/8/29 0:01,0.7,16,0.7,1,1.3,16
2020/8/29 0:02,0.7,16,0.7,1,1.1,15
2020/8/29 0:03,0.8,16,0.8,16,1.4,16
2020/8/29 0:04,0.8,16,0.8,16,1.8,16
2020/8/29 0:05,0.9,16,0.9,16,1.8,16
2020/8/29 0:06,1,16,1,16,1.9,16
2020/8/29 0:07,1,16,1,16,1.3,16
2020/8/29 0:08,1.1,16,1.1,16,1.5,1
2020/8/29 0:09,1,16,1.1,16,1,16
2020/8/29 0:10,1,16,1,16,0.5,2
2020/8/29 0:11,1,16,1,16,1.3,1
2020/8/29 0:12,1,16,1,16,1.4,16
2020/8/29 0:13,1,16,1,16,1.6,16
2020/8/29 0:14,0.9,16,1,16,1.5,16
2020/8/29 0:15,0.9,16,0.9,16,1.5,16
2020/8/29 0:16,1,16,1,16,1.6,15
2020/8/29 0:17,1,16,1,16,2,16
2020/8/29 0:18,1.1,16,1.1,16,1.9,16
2020/8/29 0:19,1.1,16,1.1,16,2,16
2020/8/29 0:20,1.2,16,1.2,16,1.3,16
2020/8/29 0:21,1.2,16,1.2,16,1,1
2020/8/29 0:22,1.1,16,1.2,16,1.1,1
2020/8/29 0:23,1.1,16,1.2,16,1.5,1
2020/8/29 0:24,1.1,16,1.1,16,1.4,15
2020/8/29 0:25,1.1,16,1.1,16,1.3,16
2020/8/29 0:26,1,16,1.1,16,1.1,1
2020/8/29 0:27,0.9,16,1,16,1.3,16
2020/8/29 0:28,0.9,16,0.9,16,1.5,1
2020/8/29 0:29,0.9,16,0.9,16,1.9,1
2020/8/29 0:30,0.9,16,0.9,16,1.9,16
2020/8/29 0:31,1,16,1,16,1.4,16
2020/8/29 0:32,1,16,1,16,1.9,16
2020/8/29 0:33,1,16,1,16,1.9,16
2020/8/29 0:34,1.1,16,1.1,16,1.9,15
2020/8/29 0:35,1.2,16,1.2,16,2.1,16
2020/8/29 0:36,1.3,16,1.3,16,2.1,16
2020/8/29 0:37,1.4,16,1.4,16,1.9,15
2020/8/29 0:38,1.4,16,1.4,16,2,16
2020/8/29 0:39,1.4,16,1.4,16,2.1,16
2020/8/29 0:40,1.5,16,1.5,16,2,16
2020/8/29 0:41,1.5,16,1.5,16,1.9,16
2020/8/29 0:42,1.5,16,1.5,16,1.6,16
2020/8/29 0:43,1.5,16,1.5,16,1.4,1
2020/8/29 0:44,1.4,16,1.5,16,1.4,16
2020/8/29 0:45,1.3,16,1.4,16,1.4,16
2020/8/29 0:46,1.3,16,1.3,16,1.4,16
2020/8/29 0:47,1.3,16,1.3,16,1.8,16
2020/8/29 0:48,1.3,16,1.3,16,2.1,16
2020/8/29 0:49,1.2,16,1.3,16,2,16
2020/8/29 0:50,1.2,16,1.2,16,2,16
2020/8/29 0:51,1.2,16,1.2,16,1.9,16
2020/8/29 0:52,1.1,16,1.2,16,0.9,1
2020/8/29 0:53,1,16,1.1,16,0.8,3
2020/8/29 0:54,1,16,1.1,16,1.4,2
2020/8/29 0:55,1.1,16,1.1,16,1.5,16
2020/8/29 0:56,1.1,16,1.1,16,1.6,16
2020/8/29 0:57,1.1,16,1.1,16,1.6,16
2020/8/29 0:58,1,16,1.1,16,1.5,2
2020/8/29 0:59,1,16,1,16,1.6,16
2020/8/29 1:00,1,16,1,16,1.6,16
2020/8/29 1:01,1,16,1,16,1.9,16
2020/8/29 1:02,1.1,16,1.1,16,1.9,16
2020/8/29 1:03,1.1,16,1.1,16,1.8,16
2020/8/29 1:04,1.1,16,1.1,16,1.1,16
2020/8/29 1:05,1.1,16,1.1,16,1.3,15
2020/8/29 1:06,1,16,1.1,16,1,15
2020/8/29 1:07,1,16,1,16,1,16
2020/8/29 1:08,1,16,1,16,1,15
2020/8/29 1:09,0.9,16,1,16,0.8,16
2020/8/29 1:10,0.8,16,0.9,16,0.3,1
2020/8/29 1:11,0.6,16,0.7,16,0.8,3
2020/8/29 1:12,0.6,16,0.6,16,0.8,2
2020/8/29 1:13,0.5,16,0.6,16,0.6,1
2020/8/29 1:14,0.5,1,0.5,16,0.8,16
2020/8/29 1:15,0.5,1,0.5,16,1,16
2020/8/29 1:16,0.5,1,0.5,16,1.6,16
2020/8/29 1:17,0.6,1,0.6,16,1.4,16
2020/8/29 1:18,0.6,1,0.6,16,1.3,16
2020/8/29 1:19,0.6,1,0.6,16,1.4,16
2020/8/29 1:20,0.7,1,0.7,16,1.1,16
2020/8/29 1:21,0.8,1,0.8,1,1.1,16
2020/8/29 1:22,0.8,16,0.8,1,1.1,16
2020/8/29 1:23,0.8,16,0.8,1,1,15
2020/8/29 1:24,0.9,16,0.9,16,1.9,16
2020/8/29 1:25,1,16,1,16,1.9,16
2020/8/29 1:26,1,16,1,16,2.1,16
2020/8/29 1:27,1.1,16,1.1,16,2.5,16
2020/8/29 1:28,1.1,16,1.1,16,1.6,16
2020/8/29 1:29,1.2,16,1.2,16,1.9,15
2020/8/29 1:30,1.2,16,1.2,16,2,16
2020/8/29 1:31,1.3,16,1.3,16,2,16
2020/8/29 1:32,1.3,16,1.3,16,1.9,15
2020/8/29 1:33,1.3,16,1.3,16,1.5,16
2020/8/29 1:34,1.4,16,1.4,16,2.5,16
2020/8/29 1:35,1.4,16,1.4,16,2,16
2020/8/29 1:36,1.4,16,1.4,16,2.1,16
2020/8/29 1:37,1.3,16,1.4,16,2.1,15
2020/8/29 1:38,1.5,16,1.5,16,2.4,15
2020/8/29 1:39,1.5,16,1.5,16,2.2,15
2020/8/29 1:40,1.5,16,1.5,16,2.1,16
2020/8/29 1:41,1.5,16,1.5,16,2.2,16
2020/8/29 1:42,1.5,16,1.5,16,2,16
2020/8/29 1:43,1.6,16,1.6,16,2,16
2020/8/29 1:44,1.6,16,1.6,16,2.1,15
2020/8/29 1:45,1.6,16,1.6,16,2.2,15
2020/8/29 1:46,1.6,16,1.6,16,2,15
2020/8/29 1:47,1.5,16,1.6,16,1.9,16
2020/8/29 1:48,1.4,16,1.5,16,1.5,16
2020/8/29 1:49,1.4,16,1.4,16,1.8,15
2020/8/29 1:50,1.4,16,1.4,16,1.9,15
2020/8/29 1:51,1.3,16,1.4,16,1.8,16
2020/8/29 1:52,1.3,16,1.3,16,1.9,15
2020/8/29 1:53,1.3,16,1.3,16,2.2,16
2020/8/29 1:54,1.3,16,1.3,16,1.8,16
2020/8/29 1:55,1.3,16,1.3,16,2.2,16
2020/8/29 1:56,1.2,16,1.3,16,1.9,16
2020/8/29 1:57,1.2,16,1.3,16,1.9,1
2020/8/29 1:58,1.3,16,1.3,16,1.8,15
2020/8/29 1:59,1.3,16,1.3,16,2.1,15
2020/8/29 2:00,1.3,16,1.3,16,2,15
2020/8/29 2:01,1.4,16,1.4,16,2,15
2020/8/29 2:02,1.4,16,1.4,16,2,16
2020/8/29 2:03,1.4,16,1.4,16,2,16
2020/8/29 2:04,1.4,16,1.4,16,1.8,16
2020/8/29 2:05,1.5,16,1.5,16,1.9,15
2020/8/29 2:06,1.5,16,1.5,16,2.2,16
2020/8/29 2:07,1.6,16,1.6,16,1.9,16
2020/8/29 2:08,1.6,16,1.6,16,1.5,16
2020/8/29 2:09,1.5,16,1.6,16,1.5,16
2020/8/29 2:10,1.4,16,1.5,16,1,1
2020/8/29 2:11,1.3,16,1.4,16,0.8,2
2020/8/29 2:12,1.3,16,1.3,16,1.6,2
2020/8/29 2:13,1.2,1,1.3,16,1.6,2
2020/8/29 2:14,1.2,1,1.2,16,1.8,2
2020/8/29 2:15,1.2,1,1.2,16,2.1,16
2020/8/29 2:16,1.2,1,1.2,16,2,1
2020/8/29 2:17,1.1,1,1.2,16,1.8,3
2020/8/29 2:18,1.1,2,1.2,16,1.5,3
2020/8/29 2:19,1.1,2,1.1,16,1.3,16
2020/8/29 2:20,1.1,2,1.1,16,1.3,1
2020/8/29 2:21,1.2,1,1.2,16,1.3,16
2020/8/29 2:22,1.2,1,1.2,16,1.4,16
2020/8/29 2:23,1.1,1,1.2,1,1.4,16
2020/8/29 2:24,1.1,1,1.1,1,1.8,16
2020/8/29 2:25,1,16,1.1,1,1.5,16
2020/8/29 2:26,1,16,1,1,2,16
2020/8/29 2:27,1.1,16,1.1,1,2,16
2020/8/29 2:28,1.1,16,1.1,1,2.4,16
2020/8/29 2:29,1.2,16,1.2,1,2.6,16
2020/8/29 2:30,1.4,16,1.4,16,2.5,16
2020/8/29 2:31,1.5,16,1.5,16,2.5,15
2020/8/29 2:32,1.5,16,1.5,16,2,16
2020/8/29 2:33,1.6,16,1.6,16,2.2,16
2020/8/29 2:34,1.6,16,1.6,16,1.8,16
2020/8/29 2:35,1.6,16,1.6,16,1.5,16
2020/8/29 2:36,1.6,16,1.6,16,2,16
2020/8/29 2:37,1.6,16,1.6,16,1.8,15
2020/8/29 2:38,1.5,16,1.6,16,1.6,16
2020/8/29 2:39,1.4,16,1.5,16,1.6,16
2020/8/29 2:40,1.3,16,1.4,16,1,1
2020/8/29 2:41,1.2,16,1.3,16,1.5,16
2020/8/29 2:42,1.2,16,1.2,16,1.8,16
2020/8/29 2:43,1.1,16,1.1,16,1.5,16
2020/8/29 2:44,1.1,16,1.1,16,1.6,16
2020/8/29 2:45,1.1,16,1.1,16,1.6,16
2020/8/29 2:46,1.1,16,1.1,16,1.3,1
2020/8/29 2:47,1,16,1.1,16,1.9,1
2020/8/29 2:48,1,16,1,16,1.4,16
2020/8/29 2:49,1,16,1,16,1.8,1
2020/8/29 2:50,1,16,1,16,1.3,15
2020/8/29 2:51,1,16,1,16,1.5,16
2020/8/29 2:52,1,16,1,16,2.1,15
2020/8/29 2:53,1.1,16,1.1,16,2.1,16
2020/8/29 2:54,1.1,16,1.1,16,2.1,16
2020/8/29 2:55,1.1,16,1.1,16,1.6,16
2020/8/29 2:56,1.2,16,1.2,16,1.6,16
2020/8/29 2:57,1.2,16,1.2,16,1.9,15
2020/8/29 2:58,1.3,16,1.3,16,2,16
2020/8/29 2:59,1.3,16,1.3,16,1.9,15
2020/8/29 3:00,1.4,16,1.4,16,2.1,16
2020/8/29 3:01,1.4,16,1.4,16,1.9,16
2020/8/29 3:02,1.4,16,1.4,16,1.5,1
2020/8/29 3:03,1.3,16,1.4,16,2,1
2020/8/29 3:04,1.3,16,1.3,16,1.6,16
2020/8/29 3:05,1.2,16,1.3,16,1.9,16
2020/8/29 3:06,1.2,16,1.2,16,1.6,15
2020/8/29 3:07,1.1,16,1.2,16,1.3,2
2020/8/29 3:08,1.1,16,1.1,16,1.4,16
2020/8/29 3:09,1,16,1,16,0.8,16
2020/8/29 3:10,0.9,16,0.9,16,1,16
2020/8/29 3:11,0.8,16,0.9,16,1.4,16
2020/8/29 3:12,0.8,16,0.8,16,1.6,16
2020/8/29 3:13,0.8,16,0.8,16,1.5,16
2020/8/29 3:14,0.8,16,0.8,16,1.6,16
2020/8/29 3:15,0.8,16,0.8,16,1,1
2020/8/29 3:16,0.8,16,0.8,16,1.4,16
2020/8/29 3:17,0.9,16,0.9,16,1.9,2
2020/8/29 3:18,0.9,1,0.9,16,1.8,16
2020/8/29 3:19,1,1,1,1,2,16
2020/8/29 3:20,1,1,1,1,1.6,16
2020/8/29 3:21,1,1,1,1,1,1
2020/8/29 3:22,1,1,1,1,1.6,1
2020/8/29 3:23,1,1,1,1,1.8,16
2020/8/29 3:24,1,1,1,1,2,16
2020/8/29 3:25,1.1,1,1.1,1,1.6,2
2020/8/29 3:26,1.1,1,1.1,1,1.9,1
2020/8/29 3:27,1.1,1,1.1,1,1.9,1
2020/8/29 3:28,1.1,1,1.1,1,2,1
2020/8/29 3:29,1.2,1,1.2,1,2.4,2
2020/8/29 3:30,1.2,1,1.2,1,2.4,16
2020/8/29 3:31,1.3,1,1.3,1,2.1,16
2020/8/29 3:32,1.3,1,1.3,1,1.9,1
2020/8/29 3:33,1.4,1,1.4,1,2.2,1
2020/8/29 3:34,1.4,1,1.4,1,2,16
2020/8/29 3:35,1.4,1,1.4,1,2.4,1
2020/8/29 3:36,1.5,1,1.5,1,2.1,1
2020/8/29 3:37,1.5,1,1.5,1,2.5,2
2020/8/29 3:38,1.5,1,1.5,1,2.5,16
2020/8/29 3:39,1.5,1,1.5,1,2.1,1
2020/8/29 3:40,1.5,1,1.5,1,2.2,1
2020/8/29 3:41,1.5,1,1.5,1,2.5,1
2020/8/29 3:42,1.4,1,1.5,1,2.1,16
2020/8/29 3:43,1.4,1,1.4,1,1.9,16
2020/8/29 3:44,1.4,1,1.4,1,1.9,16
2020/8/29 3:45,1.4,1,1.4,1,1.9,16
2020/8/29 3:46,1.3,1,1.4,1,1.6,16
2020/8/29 3:47,1.3,16,1.3,1,1.9,15
2020/8/29 3:48,1.3,16,1.3,1,2.1,1
2020/8/29 3:49,1.3,16,1.3,1,1.9,16
2020/8/29 3:50,1.3,16,1.3,1,2.5,16
2020/8/29 3:51,1.3,16,1.3,1,2.1,16
2020/8/29 3:52,1.3,16,1.3,1,2,16
2020/8/29 3:53,1.3,16,1.3,1,2,16
2020/8/29 3:54,1.4,16,1.4,1,2.5,16
2020/8/29 3:55,1.4,16,1.4,1,2.1,15
2020/8/29 3:56,1.4,16,1.4,16,1.8,16
2020/8/29 3:57,1.4,16,1.4,16,1.9,16
2020/8/29 3:58,1.4,16,1.4,16,2,16
2020/8/29 3:59,1.5,16,1.5,16,2.5,16
2020/8/29 4:00,1.5,16,1.5,16,2.1,16
2020/8/29 4:01,1.5,16,1.5,16,1.6,16
2020/8/29 4:02,1.5,16,1.5,16,1.9,16
2020/8/29 4:03,1.4,16,1.5,16,1.5,16
2020/8/29 4:04,1.3,16,1.4,16,1.4,16
2020/8/29 4:05,1.3,16,1.3,16,1.3,15
2020/8/29 4:06,1.2,16,1.3,16,1.3,16
2020/8/29 4:07,1.1,16,1.2,16,0.6,2
2020/8/29 4:08,1,16,1.1,16,0.9,16
2020/8/29 4:09,0.9,16,1,16,0.8,1
2020/8/29 4:10,0.7,16,0.9,16,0.6,16
2020/8/29 4:11,0.6,16,0.7,16,0.5,1
2020/8/29 4:12,0.6,1,0.6,16,1.1,2
2020/8/29 4:13,0.6,1,0.6,16,1.3,1
2020/8/29 4:14,0.5,1,0.6,16,1.1,16
2020/8/29 4:15,0.5,1,0.5,16,1,1
2020/8/29 4:16,0.5,1,0.5,16,1.1,16
2020/8/29 4:17,0.6,1,0.6,16,1.5,1
2020/8/29 4:18,0.7,1,0.7,16,1.8,1
2020/8/29 4:19,0.7,1,0.7,16,1.8,1
2020/8/29 4:20,0.9,1,0.9,1,1.8,1
2020/8/29 4:21,1,1,1,1,1.6,1
2020/8/29 4:22,1.1,1,1.1,1,1.6,16
2020/8/29 4:23,1.1,1,1.1,1,1.5,16
2020/8/29 4:24,1.1,1,1.1,1,1.8,16
2020/8/29 4:25,1.1,1,1.1,1,1.6,16
2020/8/29 4:26,1.2,1,1.2,1,1.8,16
2020/8/29 4:27,1.2,16,1.2,1,1.8,16
2020/8/29 4:28,1.3,16,1.3,16,2.2,16
2020/8/29 4:29,1.3,16,1.3,16,2.2,16
2020/8/29 4:30,1.3,16,1.3,16,1.9,15
2020/8/29 4:31,1.4,16,1.4,16,2,16
2020/8/29 4:32,1.4,16,1.4,16,1.8,15
2020/8/29 4:33,1.4,16,1.4,16,1.9,16
2020/8/29 4:34,1.4,16,1.4,16,2,16
2020/8/29 4:35,1.4,16,1.4,16,1.6,16
2020/8/29 4:36,1.4,16,1.4,16,1.3,16
2020/8/29 4:37,1.4,16,1.4,16,1.8,16
2020/8/29 4:38,1.3,16,1.4,16,1.6,16
2020/8/29 4:39,1.3,16,1.3,16,1.8,16
2020/8/29 4:40,1.3,16,1.3,16,2.2,16
2020/8/29 4:41,1.3,16,1.3,16,2.1,16
2020/8/29 4:42,1.3,16,1.3,16,2.2,16
2020/8/29 4:43,1.4,16,1.4,16,2,15
2020/8/29 4:44,1.4,16,1.4,16,2.2,15
2020/8/29 4:45,1.4,16,1.4,16,2.4,16
2020/8/29 4:46,1.5,16,1.5,16,1.9,16
2020/8/29 4:47,1.6,16,1.6,16,2.1,15
2020/8/29 4:48,1.6,16,1.6,16,2.2,15
2020/8/29 4:49,1.6,16,1.6,16,2.1,15
2020/8/29 4:50,1.7,16,1.7,16,2,16
2020/8/29 4:51,1.6,16,1.7,16,1.8,16
2020/8/29 4:52,1.6,16,1.6,16,1.8,1
2020/8/29 4:53,1.5,16,1.6,16,1.6,16
2020/8/29 4:54,1.4,16,1.5,16,1,15
2020/8/29 4:55,1.3,16,1.4,16,1,1
2020/8/29 4:56,1.2,16,1.3,16,1,1
2020/8/29 4:57,1.1,16,1.2,16,0.9,16
2020/8/29 4:58,1,1,1.1,16,1,16
2020/8/29 4:59,0.9,1,1,16,1.5,1
2020/8/29 5:00,0.9,1,0.9,16,2,16
2020/8/29 5:01,0.9,1,0.9,16,1.8,16
2020/8/29 5:02,1,1,1,16,2.1,16
2020/8/29 5:03,1.1,1,1.1,16,2.1,16
2020/8/29 5:04,1.2,16,1.2,16,2.2,16
2020/8/29 5:05,1.3,16,1.3,16,2.2,16
2020/8/29 5:06,1.3,16,1.3,16,1.9,16
2020/8/29 5:07,1.5,16,1.5,16,2.1,16
2020/8/29 5:08,1.6,16,1.6,16,2.2,15
2020/8/29 5:09,1.6,16,1.6,16,2.2,16
2020/8/29 5:10,1.6,16,1.6,16,2,15
2020/8/29 5:11,1.6,16,1.6,16,2,16
2020/8/29 5:12,1.5,16,1.6,16,1.8,16
2020/8/29 5:13,1.4,16,1.5,16,1.6,16
2020/8/29 5:14,1.4,16,1.4,16,1.3,16
2020/8/29 5:15,1.3,16,1.4,16,1.4,16
2020/8/29 5:16,1.3,16,1.3,16,2,15
2020/8/29 5:17,1.3,16,1.3,16,2,16
2020/8/29 5:18,1.3,16,1.3,16,2.2,16
2020/8/29 5:19,1.3,16,1.3,16,2,16
2020/8/29 5:20,1.4,16,1.4,16,2.2,15
2020/8/29 5:21,1.4,16,1.4,16,2.2,15
2020/8/29 5:22,1.4,16,1.4,16,2.1,15
2020/8/29 5:23,1.4,16,1.4,16,1.5,15
2020/8/29 5:24,1.4,15,1.4,16,1.3,16
2020/8/29 5:25,1.3,16,1.4,16,0.4,15
2020/8/29 5:26,1.1,16,1.3,16,0,16
2020/8/29 5:27,1,16,1.1,16,0.8,7
2020/8/29 5:28,0.9,16,1,16,0.9,8
2020/8/29 5:29,0.8,16,0.9,16,0.8,8
2020/8/29 5:30,0.7,15,0.8,16,1.1,9
2020/8/29 5:31,0.6,14,0.7,16,1.1,9
2020/8/29 5:32,0.5,10,0.6,16,0.6,9
2020/8/29 5:33,0.4,9,0.5,16,0.5,9
2020/8/29 5:34,0.4,9,0.4,15,0.5,9
2020/8/29 5:35,0.4,9,0.4,16,0.5,9
2020/8/29 5:36,0.4,9,0.4,16,0.4,9
2020/8/29 5:37,0.4,9,0.4,16,0.6,9
2020/8/29 5:38,0.4,9,0.4,16,0.8,9
2020/8/29 5:39,0.4,9,0.4,16,0.8,9
2020/8/29 5:40,0.4,9,0.4,15,1.4,13
2020/8/29 5:41,0.5,10,0.5,14,1.3,13
2020/8/29 5:42,0.5,10,0.5,10,1.4,13
2020/8/29 5:43,0.6,10,0.6,10,1.5,13
2020/8/29 5:44,0.6,10,0.6,10,1.4,11
2020/8/29 5:45,0.7,11,0.7,11,1,11
2020/8/29 5:46,0.7,11,0.7,11,1.4,11
2020/8/29 5:47,0.8,11,0.8,11,1.6,12
2020/8/29 5:48,0.8,11,0.8,11,1.3,10
2020/8/29 5:49,0.8,11,0.8,11,1.4,12
2020/8/29 5:50,0.9,12,0.9,12,1.5,13
2020/8/29 5:51,0.9,12,0.9,12,2,13
2020/8/29 5:52,1,12,1,12,2,12
2020/8/29 5:53,1,12,1,12,2.1,12
2020/8/29 5:54,1.1,12,1.1,12,1.9,12
2020/8/29 5:55,1.1,12,1.1,12,1.8,12
2020/8/29 5:56,1.2,12,1.2,12,1.8,12
2020/8/29 5:57,1.2,12,1.2,12,1.5,12
2020/8/29 5:58,1.2,12,1.2,12,1.6,12
2020/8/29 5:59,1.2,12,1.2,12,0.8,13
2020/8/29 6:00,1.1,13,1.2,12,0.3,14
2020/8/29 6:01,1,13,1.1,12,0.3,16
2020/8/29 6:02,0.9,13,1,12,0.6,1
2020/8/29 6:03,0.7,14,0.9,12,0.5,2
2020/8/29 6:04,0.6,14,0.7,12,0.5,16
2020/8/29 6:05,0.5,15,0.6,12,0.4,1
2020/8/29 6:06,0.4,16,0.5,12,0.4,3
2020/8/29 6:07,0.3,16,0.4,12,0.8,2
2020/8/29 6:08,0.2,1,0.3,12,0.6,2
2020/8/29 6:09,0.2,1,0.2,12,0.5,2
2020/8/29 6:10,0.2,1,0.2,13,0.3,1
2020/8/29 6:11,0.2,2,0.2,13,0.3,1
2020/8/29 6:12,0.2,2,0.2,13,0.5,1
2020/8/29 6:13,0.2,2,0.2,14,0.5,1
2020/8/29 6:14,0.2,2,0.2,14,0.6,1
2020/8/29 6:15,0.3,2,0.3,15,0.8,1
2020/8/29 6:16,0.3,2,0.3,16,0.8,2
2020/8/29 6:17,0.3,1,0.3,16,0.5,1
2020/8/29 6:18,0.3,1,0.3,2,0.9,16
2020/8/29 6:19,0.3,1,0.3,2,0.8,16
2020/8/29 6:20,0.4,1,0.4,1,0.9,2
2020/8/29 6:21,0.4,1,0.4,1,1,2
2020/8/29 6:22,0.5,2,0.5,2,1,2
2020/8/29 6:23,0.5,2,0.5,2,1,2
2020/8/29 6:24,0.5,2,0.5,2,1,2
2020/8/29 6:25,0.5,2,0.5,2,0.5,1
2020/8/29 6:26,0.5,2,0.5,2,0.3,15
2020/8/29 6:27,0.5,2,0.5,2,0.6,3
2020/8/29 6:28,0.5,2,0.5,2,0.8,2
2020/8/29 6:29,0.5,2,0.5,2,0.8,3
2020/8/29 6:30,0.5,2,0.5,2,0.8,3
2020/8/29 6:31,0.5,2,0.5,2,0.4,2
2020/8/29 6:32,0.4,2,0.5,2,0.6,4
2020/8/29 6:33,0.4,2,0.4,2,0.4,4
2020/8/29 6:34,0.3,3,0.4,2,0.5,3
2020/8/29 6:35,0.4,3,0.4,2,0.9,4
2020/8/29 6:36,0.4,3,0.4,2,0.6,4
2020/8/29 6:37,0.4,3,0.4,2,0.5,4
2020/8/29 6:38,0.4,3,0.4,2,0.9,3
2020/8/29 6:39,0.4,3,0.4,2,1.1,6
2020/8/29 6:40,0.4,3,0.4,2,0.5,3
2020/8/29 6:41,0.4,3,0.4,2,0.5,4
2020/8/29 6:42,0.4,3,0.4,2,0.6,1
2020/8/29 6:43,0.4,3,0.4,2,0.6,1
2020/8/29 6:44,0.4,3,0.4,3,0.4,6
2020/8/29 6:45,0.4,3,0.4,3,0.6,4
2020/8/29 6:46,0.4,3,0.4,3,0.6,4
2020/8/29 6:47,0.4,3,0.4,3,0.6,4
2020/8/29 6:48,0.3,3,0.4,3,0.1,4
2020/8/29 6:49,0.3,3,0.3,3,0.1,13
2020/8/29 6:50,0.2,2,0.2,3,0.3,16
2020/8/29 6:51,0.2,3,0.2,3,0.6,1
2020/8/29 6:52,0.2,3,0.2,3,0.5,2
2020/8/29 6:53,0.2,3,0.2,3,0.5,1
2020/8/29 6:54,0.2,2,0.2,3,0.6,1
2020/8/29 6:55,0.2,2,0.2,3,0.3,1
2020/8/29 6:56,0.2,2,0.2,3,0.6,1
2020/8/29 6:57,0.2,2,0.2,3,0.3,2
2020/8/29 6:58,0.2,2,0.2,3,0.3,8
2020/8/29 6:59,0.2,2,0.2,3,0.4,9
2020/8/29 7:00,0.2,3,0.2,2,0.1,6
2020/8/29 7:01,0.2,3,0.2,3,0.4,9
2020/8/29 7:02,0.1,5,0.2,3,0.3,9
2020/8/29 7:03,0.1,6,0.1,3,0.3,15
2020/8/29 7:04,0.2,7,0.2,2,1,8
2020/8/29 7:05,0.2,8,0.2,2,1,9
2020/8/29 7:06,0.2,8,0.2,2,1,9
2020/8/29 7:07,0.2,8,0.2,2,0.3,14
2020/8/29 7:08,0.2,9,0.2,2,0.5,11
2020/8/29 7:09,0.2,9,0.2,2,0.1,10
2020/8/29 7:10,0.2,9,0.2,3,0.1,10
2020/8/29 7:11,0.2,10,0.2,3,0.3,14
2020/8/29 7:12,0.2,11,0.2,7,0.1,14
2020/8/29 7:13,0.2,11,0.2,7,0,14
2020/8/29 7:14,0.1,11,0.2,7,0.1,14
2020/8/29 7:15,0.1,11,0.1,8,0.5,7
2020/8/29 7:16,0.1,11,0.1,8,0.6,7
2020/8/29 7:17,0.2,11,0.2,8,1.3,6
2020/8/29 7:18,0.2,10,0.2,9,0.8,7
2020/8/29 7:19,0.2,10,0.2,9,0.6,8
2020/8/29 7:20,0.2,9,0.2,9,0.9,8
2020/8/29 7:21,0.2,8,0.2,10,0.5,5
2020/8/29 7:22,0.3,8,0.3,8,0.6,9
2020/8/29 7:23,0.3,7,0.3,8,0.3,9
2020/8/29 7:24,0.3,7,0.3,8,0.3,4
2020/8/29 7:25,0.3,7,0.3,8,0.3,3
2020/8/29 7:26,0.2,6,0.3,8,0.1,2
2020/8/29 7:27,0.2,6,0.2,8,0.1,13
2020/8/29 7:28,0.1,7,0.2,8,0.3,10
2020/8/29 7:29,0.2,7,0.2,8,0.9,6
2020/8/29 7:30,0.2,7,0.2,8,0.5,6
2020/8/29 7:31,0.2,8,0.2,8,0.6,10
2020/8/29 7:32,0.2,8,0.2,8,0.8,11
2020/8/29 7:33,0.2,9,0.2,7,1.3,10
2020/8/29 7:34,0.3,10,0.3,7,1.4,9
2020/8/29 7:35,0.3,10,0.3,7,0.5,10
2020/8/29 7:36,0.4,10,0.4,10,1.4,10
2020/8/29 7:37,0.5,10,0.5,10,1.3,11
2020/8/29 7:38,0.6,10,0.6,10,1.4,10
2020/8/29 7:39,0.6,10,0.6,10,1.8,8
2020/8/29 7:40,0.7,10,0.7,10,1.8,9
2020/8/29 7:41,0.8,10,0.8,10,1.8,9
2020/8/29 7:42,0.9,10,0.9,10,1.9,8
2020/8/29 7:43,0.9,9,0.9,10,1.6,8
2020/8/29 7:44,0.8,9,0.9,10,1.6,12
2020/8/29 7:45,0.9,9,0.9,10,0.9,7
2020/8/29 7:46,0.9,9,0.9,10,1.8,8
2020/8/29 7:47,0.9,9,0.9,10,1.8,8
2020/8/29 7:48,1,9,1,9,2.2,10
2020/8/29 7:49,1,9,1,9,2.2,9
2020/8/29 7:50,1.1,9,1.1,9,2.2,9
2020/8/29 7:51,1.1,9,1.1,9,2.7,8
2020/8/29 7:52,1.1,9,1.1,9,2.4,8
2020/8/29 7:53,1.1,9,1.1,9,2.6,10
2020/8/29 7:54,1.2,9,1.2,9,3.1,10
2020/8/29 7:55,1.3,9,1.3,9,1.4,7
2020/8/29 7:56,1.3,9,1.3,9,1.6,9
2020/8/29 7:57,1.4,9,1.4,9,3.8,10
2020/8/29 7:58,1.5,9,1.5,9,3.1,9
2020/8/29 7:59,1.5,9,1.5,9,2.6,10
2020/8/29 8:00,1.5,9,1.5,9,2.2,9
2020/8/29 8:01,1.5,9,1.6,9,2.2,9
2020/8/29 8:02,1.5,9,1.5,9,2.7,8
2020/8/29 8:03,1.5,9,1.5,9,2.7,9
2020/8/29 8:04,1.5,9,1.5,9,2.2,8
2020/8/29 14:50,1.6,12,1.6,12,1.9,10
2020/8/29 14:51,2,10,2,11,3.3,10
2020/8/29 14:52,2,9,2,11,4.3,8
2020/8/29 14:53,2.5,9,2.5,9,5.6,9
2020/8/29 14:54,2.9,9,2.9,9,5.5,9
2020/8/29 14:55,2.7,9,2.9,9,3.9,8
2020/8/29 14:56,2.7,9,2.7,9,3.8,8
2020/8/29 14:57,2.6,9,2.7,9,3.1,8
2020/8/29 14:58,2.4,9,2.6,9,2.9,8
2020/8/29 14:59,2.2,9,2.4,9,1.5,14
2020/8/29 15:00,2,9,2.2,9,3.5,8
2020/8/29 15:01,2,9,2.1,9,3.8,8
2020/8/29 15:02,2,8,2,9,2.6,8
2020/8/29 15:03,1.7,8,2,9,1.6,2
2020/8/29 15:04,1.5,8,1.7,9,2,15
2020/8/29 15:05,1.3,9,1.4,9,1,11
2020/8/29 15:06,1.1,9,1.3,9,1.3,9
2020/8/29 15:07,1.1,10,1.1,9,2.9,10
2020/8/29 15:08,1.2,11,1.2,9,3.2,8
2020/8/29 15:09,1.4,10,1.4,9,4.2,12
2020/8/29 15:10,1.6,10,1.6,9,5.6,9
2020/8/29 15:11,1.6,11,1.6,9,5.4,10
2020/8/29 15:12,1.7,11,1.7,8,5.1,9
2020/8/29 15:13,1.8,11,1.8,11,4.2,9
2020/8/29 15:14,2,10,2,10,4.7,10
2020/8/29 15:15,2.2,10,2.2,10,5,9
2020/8/29 15:16,2.4,10,2.4,10,3.6,9
2020/8/29 15:17,2.4,10,2.4,10,3.9,10
2020/8/29 15:18,2.5,10,2.5,10,4.4,10
2020/8/29 15:19,2.5,10,2.6,10,6.1,10
2020/8/29 15:20,2.6,10,2.6,10,3.5,10
2020/8/29 15:21,2.6,10,2.6,10,4.4,11
2020/8/29 15:22,2.6,10,2.6,10,3.3,9
2020/8/29 15:23,2.6,10,2.6,10,4.7,9
2020/8/29 15:24,2.5,10,2.6,10,4.5,9
2020/8/29 15:25,2.5,10,2.5,10,3.9,8
2020/8/29 15:26,2.5,10,2.5,10,4.4,8
2020/8/29 15:27,2.5,10,2.6,10,3.5,8
2020/8/29 15:28,2.5,10,2.6,10,3.8,9
2020/8/29 15:29,2.4,9,2.5,10,4.9,9
2020/8/29 15:30,2.5,9,2.5,10,3.8,9
2020/8/29 15:31,2.5,9,2.5,10,6,9
2020/8/29 15:32,2.6,9,2.6,10,4.2,10
2020/8/29 15:33,2.6,9,2.6,10,3,8
2020/8/29 15:34,2.5,9,2.6,10,3.9,10
2020/8/29 15:35,2.6,9,2.6,10,5.4,9
2020/8/29 15:36,2.7,9,2.7,9,6,9
2020/8/29 15:37,2.7,9,2.8,9,4.2,10
2020/8/29 15:38,2.8,9,2.8,9,5,9
2020/8/29 15:39,2.8,9,2.8,9,4.8,8
2020/8/29 15:40,2.8,9,2.8,9,4.8,9
2020/8/29 15:41,2.8,9,2.9,9,5.1,9
2020/8/29 15:42,2.7,9,2.8,9,5.6,9
2020/8/29 15:43,2.7,9,2.7,9,5,10
2020/8/29 15:44,2.8,9,2.8,9,5.6,9
2020/8/29 15:45,2.6,9,2.8,9,4.1,10
2020/8/29 15:46,2.4,9,2.6,9,3.9,9
2020/8/29 15:47,2.4,9,2.4,9,4.4,9
2020/8/29 15:48,2.3,9,2.4,9,3.6,9
2020/8/29 15:49,2.2,9,2.3,9,3.7,10
2020/8/29 15:50,2.1,9,2.2,9,4.2,10
2020/8/29 15:51,2,9,2.1,9,5.6,9
2020/8/29 15:52,2.1,9,2.1,9,4.5,9
2020/8/29 15:53,2,9,2.1,9,3.7,10
2020/8/29 15:54,1.9,10,2,9,2.9,8
2020/8/29 15:55,2,9,2,9,5.4,10
2020/8/29 15:56,2,9,2.1,9,3.8,7
2020/8/29 15:57,2.1,9,2.1,9,3.8,8
2020/8/29 15:58,2,9,2.1,9,3.1,9
2020/8/29 15:59,2,9,2,9,3.5,9
2020/8/29 16:00,1.9,9,2,9,2.2,10
2020/8/29 16:01,1.7,9,1.9,9,1,9
2020/8/29 16:02,1.5,9,1.7,9,2.4,10
2020/8/29 16:03,1.5,10,1.5,9,2.5,11
2020/8/29 16:04,1.6,10,1.6,9,4.3,10
2020/8/29 16:05,1.5,10,1.7,9,2.9,9
2020/8/29 16:06,1.3,10,1.5,9,1.3,11
2020/8/29 16:07,1.1,11,1.3,9,1,16
2020/8/29 16:08,1.1,11,1.1,9,2,14
2020/8/29 16:09,1,11,1.1,9,1.8,15
2020/8/29 16:10,1,11,1,9,0.8,13
2020/8/29 16:11,1,11,1,9,1.9,14
2020/8/29 16:12,1.1,12,1.1,10,3.1,15
2020/8/29 16:13,1.2,12,1.2,10,3,14
2020/8/29 16:14,1.1,13,1.2,10,3,14
2020/8/29 16:15,1.1,14,1.1,10,3.7,16
2020/8/29 16:16,1.4,15,1.4,15,4.5,16
2020/8/29 16:17,1.7,15,1.7,15,4.9,16
2020/8/29 16:18,1.9,16,1.9,16,5.2,16
2020/8/29 16:19,2.1,16,2.1,16,5.6,14
2020/8/29 16:20,2.4,16,2.4,16,5.8,1
2020/8/29 16:21,2.7,16,2.7,16,4.8,16
2020/8/29 16:22,2.8,16,2.8,16,4.4,16
2020/8/29 16:23,3.1,16,3.1,16,6,16
2020/8/29 16:24,3.2,16,3.2,16,4.2,14
2020/8/29 16:25,3.3,16,3.3,16,4.7,1
2020/8/29 16:26,3.2,16,3.3,16,3.9,16
2020/8/29 16:27,3.2,16,3.3,16,3.9,1
2020/8/29 16:28,3.1,16,3.2,16,3.6,16
2020/8/29 16:29,3.1,16,3.1,16,4.7,15
2020/8/29 16:30,3,16,3.2,16,4.1,15
2020/8/29 16:31,3.1,16,3.1,16,5.4,16
2020/8/29 16:32,3,16,3.1,16,4.4,15
2020/8/29 16:33,2.9,16,3,16,4.2,15
2020/8/29 16:34,2.9,16,2.9,16,4.8,16
2020/8/29 16:35,2.9,15,3,16,4.3,16
2020/8/29 16:36,2.9,15,2.9,16,4.3,16
2020/8/29 16:37,3,15,3,16,4.7,14
2020/8/29 16:38,3,15,3,16,3.6,15
2020/8/29 16:39,3.1,15,3.1,16,6.9,1
2020/8/29 16:40,3.3,15,3.3,15,5.5,16
2020/8/29 16:41,3.2,15,3.3,15,5.8,14
2020/8/29 16:42,3.1,16,3.2,15,4.4,15
2020/8/29 16:43,3.2,16,3.2,15,5.8,15
2020/8/29 16:44,3.2,16,3.3,15,5,15
2020/8/29 16:45,3.4,16,3.4,16,5.1,16
2020/8/29 16:46,3.4,16,3.4,16,5.6,16
2020/8/29 16:47,3.4,16,3.4,16,5,16
2020/8/29 16:48,3.4,16,3.4,16,6.1,16
2020/8/29 16:49,3.4,16,3.4,16,5.6,16
2020/8/29 16:50,3.2,16,3.4,16,4.2,16
2020/8/29 16:51,3.1,16,3.2,16,3,1
2020/8/29 16:52,3.1,16,3.1,16,4.2,16
2020/8/29 16:53,3,16,3.1,16,4.2,16
2020/8/29 16:54,2.9,16,3,16,3.6,16
2020/8/29 16:55,2.7,16,2.9,16,3.2,1
2020/8/29 16:56,2.6,16,2.7,16,3.6,16
2020/8/29 16:57,2.5,16,2.6,16,3.8,16
2020/8/29 16:58,2.5,16,2.5,16,3.2,15
2020/8/29 16:59,2.6,16,2.6,16,6.8,16
2020/8/29 17:00,2.8,16,2.8,16,6.4,15
2020/8/29 17:01,2.9,16,2.9,16,6.4,15
2020/8/29 17:02,3.2,16,3.2,16,6.1,16
2020/8/29 17:03,3.3,16,3.3,16,6.4,15
2020/8/29 17:04,3.5,16,3.5,16,7,16
2020/8/29 17:05,3.8,16,3.8,16,6.5,16
2020/8/29 17:06,4,16,4,16,6.3,16
2020/8/29 17:07,4.1,16,4.1,16,4.8,15
2020/8/29 17:08,4.2,16,4.2,16,5,15
2020/8/29 17:09,4,16,4.2,16,4.7,16
2020/8/29 17:10,3.9,16,4,16,4.3,16
2020/8/29 17:11,3.9,16,3.9,16,5.5,16
2020/8/29 17:12,3.8,16,3.9,16,5.2,16
2020/8/29 17:13,3.7,16,3.8,16,5.8,16
2020/8/29 17:14,3.6,16,3.7,16,6.4,15
2020/8/29 17:15,3.5,16,3.6,16,5.6,1
2020/8/29 17:16,3.5,16,3.5,16,6,16
2020/8/29 17:17,3.5,16,3.5,16,5.5,16
2020/8/29 17:18,3.5,16,3.5,16,5.5,16
2020/8/29 17:19,3.5,16,3.5,16,4.5,16
2020/8/29 17:20,3.6,16,3.6,16,4.5,16
2020/8/29 17:21,3.5,16,3.6,16,4.4,15
2020/8/29 17:22,3.5,16,3.5,16,4.9,15
2020/8/29 17:23,3.5,16,3.6,16,4.7,16
2020/8/29 17:24,3.4,16,3.5,16,4.4,16
2020/8/29 17:25,3.3,16,3.4,16,3.9,16
2020/8/29 17:26,3.1,16,3.3,16,3.1,16
2020/8/29 17:27,3,16,3.1,16,3.6,16
2020/8/29 17:28,2.9,16,3,16,4.2,16
2020/8/29 17:29,2.8,16,2.9,16,3.6,1
2020/8/29 17:30,2.7,16,2.8,16,3.2,1
2020/8/29 17:31,2.6,16,2.7,16,3,3
2020/8/29 17:32,2.4,1,2.6,16,2.7,1
2020/8/29 17:33,2.4,1,2.4,16,4.1,1
2020/8/29 17:34,2.3,1,2.4,16,3.6,3
2020/8/29 17:35,2.3,2,2.3,16,3.7,3
2020/8/29 17:36,2.4,2,2.4,16,3.9,2
2020/8/29 17:37,2.5,2,2.5,16,3.8,4
2020/8/29 17:38,2.5,3,2.5,16,4.2,5
2020/8/29 17:39,2.5,3,2.5,16,3.8,5
2020/8/29 17:40,2.6,4,2.6,16,4.4,4
2020/8/29 17:41,2.7,4,2.7,4,4.3,5
2020/8/29 17:42,2.9,4,2.9,4,4.9,5
2020/8/29 17:43,2.9,4,2.9,4,4.2,6
2020/8/29 17:44,2.7,5,2.9,4,2.7,5
2020/8/29 17:45,2.6,5,2.7,4,2.1,6
2020/8/29 17:46,2.5,5,2.6,4,3.2,3
2020/8/29 17:47,2.5,5,2.5,4,3.9,2
2020/8/29 17:48,2.5,5,2.6,4,4.5,3
2020/8/29 17:49,2.5,4,2.5,4,3.9,2
2020/8/29 17:50,2.3,4,2.5,4,2.1,2
2020/8/29 17:51,2.2,4,2.3,4,2.7,3
2020/8/29 17:52,2.1,3,2.2,4,4.1,3
2020/8/29 17:53,2,3,2.1,4,3.5,3
2020/8/29 17:54,2.1,3,2.1,5,3.7,3
2020/8/29 17:55,2.2,3,2.2,5,3.7,3
2020/8/29 17:56,2.3,3,2.3,5,3.9,3
2020/8/29 17:57,2.3,2,2.4,5,3.2,3